This is the latest recevied weather packets stored in our database for station/object JS1SZZ-13. If no packets are shown the sender has not sent any weather packets the latest 10 day(s).
| Time | Temp. | Humidity | Pressure | Rain* | Wind** | Luminosity | Snow |
|---|---|---|---|---|---|---|---|
| 1777530900 | 10.56° C | 85% | 1018.8 hPa | 0 mm | - | - | - |
| 1777529999 | 10.56° C | 85% | 1018.8 hPa | 0 mm | - | - | - |
| 1777529101 | 10.56° C | 86% | 1018.8 hPa | 0 mm | - | - | - |
| 1777528201 | 10.56° C | 87% | 1018.8 hPa | 0 mm | - | - | - |
| 1777527300 | 10.56° C | 85% | 1018.7 hPa | 0 mm | - | - | - |
| 1777526400 | 10° C | 83% | 1019 hPa | 0 mm | - | - | - |
| 1777525500 | 10.56° C | 83% | 1019.1 hPa | 0 mm | - | - | - |
| 1777524599 | 10° C | 83% | 1019.3 hPa | 0.25 mm | - | - | - |
| 1777523701 | 10° C | 84% | 1019.1 hPa | 0.25 mm | - | - | - |
| 1777522801 | 10° C | 88% | 1019.6 hPa | 0.51 mm | - | - | - |
| 1777522511 | 10° C | 89% | 1019.4 hPa | 0.51 mm | - | - | - |
| 1777521600 | 10° C | 88% | 1019.1 hPa | 0.25 mm | - | - | - |
| 1777520701 | 10° C | 87% | 1019 hPa | 0.51 mm | - | - | - |
| 1777519802 | 10° C | 86% | 1018.9 hPa | 0.25 mm | - | - | - |
| 1777518001 | 10° C | 87% | 1019.2 hPa | 0.25 mm | - | - | - |
| 1777517101 | 10.56° C | 85% | 1019.2 hPa | 0 mm | - | - | - |
| 1777516202 | 11.11° C | 84% | 1019.4 hPa | 0 mm | - | - | - |
| 1777515301 | 11.67° C | 86% | 1019.3 hPa | 0 mm | - | - | - |
| 1777514400 | 11.67° C | 88% | 1019.6 hPa | 0 mm | - | - | - |
| 1777513502 | 11.11° C | 88% | 1019.5 hPa | 0 mm | - | - | - |
| 1777512601 | 10.56° C | 87% | 1019.6 hPa | 0.25 mm | - | - | - |
| 1777511701 | 10.56° C | 87% | 1019.6 hPa | 0.25 mm | - | - | - |
| 1777510801 | 10° C | 88% | 1019.6 hPa | 0.25 mm | - | - | - |
| 1777509900 | 10.56° C | 84% | 1019.5 hPa | 0.25 mm | - | - | - |
| 1777509001 | 10.56° C | 82% | 1019.4 hPa | 0 mm | - | - | - |
* Rain latest hour (hover to see other rain measurements)
** Current wind speed in m/s (hover to see current wind gust speed)